Simultaneous Nadir Overpasses (SNOs) Predictions

Prediction of SNOs between NOAA-19 and NPP Satellite Orbit:

Table of predicted SNOs for the next 14.0 days since TLE Epoch: 11/26/2016
Index Date (NOAA-19) Time (NOAA-19) Lat,Lon (NOAA-19) SZA (NOAA-19 ) Date (NPP) Time (NPP) Lat,Lon (NPP) SZA (NPP ) Distance(km) Time Diff (sec)
1 11/28/2016 15:10:02 80.94, -99.37 105.31 11/28/2016 15:11:14 80.94, -99.45 105.29 1.46 72
2 11/28/2016 16:01:01 -80.94, 67.79 74.68 11/28/2016 16:01:59 -80.94, 67.91 74.72 2.09 58
3 11/28/2016 16:52:04 80.94,-124.94 105.33 11/28/2016 16:52:44 80.94,-124.86 105.31 1.37 40
4 11/28/2016 17:43:02 -80.94, 42.60 74.70 11/28/2016 17:43:29 -80.94, 42.50 74.70 1.81 27
5 11/28/2016 18:34:05 80.94,-150.13 105.31 11/28/2016 18:34:14 80.94,-150.28 105.33 2.53 9
6 11/28/2016</
